Year,Month,Day,Hour,Minute,Value (Times are PST for temperature in C)
2017,05,30,00,00,18.30
2017,05,30,00,01,18.30
2017,05,30,00,02,18.30
2017,05,30,00,03,18.30
2017,05,30,00,04,18.30
2017,05,30,00,05,18.30
2017,05,30,00,06,18.30
2017,05,30,00,07,18.30
2017,05,30,00,08,18.20
2017,05,30,00,09,18.20
2017,05,30,00,10,18.20
2017,05,30,00,11,18.20
2017,05,30,00,12,18.20
2017,05,30,00,13,18.20
2017,05,30,00,14,18.20
2017,05,30,00,15,18.20
2017,05,30,00,16,18.20
2017,05,30,00,17,18.10
2017,05,30,00,18,18.10
2017,05,30,00,19,18.10
2017,05,30,00,20,18.10
2017,05,30,00,21,18.10
2017,05,30,00,22,18.10
2017,05,30,00,23,18.10
2017,05,30,00,24,18.10
2017,05,30,00,25,18.00
2017,05,30,00,26,18.00
2017,05,30,00,27,17.90
2017,05,30,00,28,17.90
2017,05,30,00,29,17.90
2017,05,30,00,30,17.90
2017,05,30,00,31,17.90
2017,05,30,00,32,17.80
2017,05,30,00,33,17.80
2017,05,30,00,34,17.80
2017,05,30,00,35,17.80
2017,05,30,00,36,17.70
2017,05,30,00,37,17.70
2017,05,30,00,38,17.70
2017,05,30,00,39,17.70
2017,05,30,00,40,17.60
2017,05,30,00,41,17.60
2017,05,30,00,42,17.50
2017,05,30,00,43,17.50
2017,05,30,00,44,17.40
2017,05,30,00,45,17.40
2017,05,30,00,46,17.40
2017,05,30,00,47,17.30
2017,05,30,00,48,17.30
2017,05,30,00,49,17.30
2017,05,30,00,50,17.20
2017,05,30,00,51,17.20
2017,05,30,00,52,17.20
2017,05,30,00,53,17.10
2017,05,30,00,54,17.10
2017,05,30,00,55,17.10
2017,05,30,00,56,17.10
2017,05,30,00,57,17.00
2017,05,30,00,58,17.00
2017,05,30,00,59,16.90
2017,05,30,01,00,16.80
2017,05,30,01,01,16.60
2017,05,30,01,02,16.50
2017,05,30,01,03,16.40
2017,05,30,01,04,16.20
2017,05,30,01,05,16.10
2017,05,30,01,06,15.90
2017,05,30,01,07,15.80
2017,05,30,01,08,15.70
2017,05,30,01,09,15.60
2017,05,30,01,10,15.60
2017,05,30,01,11,15.50
2017,05,30,01,12,15.40
2017,05,30,01,13,15.30
2017,05,30,01,14,15.30
2017,05,30,01,15,15.20
2017,05,30,01,16,15.20
2017,05,30,01,17,15.20
2017,05,30,01,18,15.10
2017,05,30,01,19,15.10
2017,05,30,01,20,15.10
2017,05,30,01,21,15.00
2017,05,30,01,22,15.00
2017,05,30,01,23,14.90
2017,05,30,01,24,14.90
2017,05,30,01,25,14.80
2017,05,30,01,26,14.80
2017,05,30,01,27,14.80
2017,05,30,01,28,14.80
2017,05,30,01,29,14.70
2017,05,30,01,30,14.70
2017,05,30,01,31,14.70
2017,05,30,01,32,14.60
2017,05,30,01,33,14.60
2017,05,30,01,34,14.50
2017,05,30,01,35,14.50
2017,05,30,01,36,14.40
2017,05,30,01,37,14.40
2017,05,30,01,38,14.40
2017,05,30,01,39,14.30
2017,05,30,01,40,14.30
2017,05,30,01,41,14.30
2017,05,30,01,42,14.30
2017,05,30,01,43,14.30
2017,05,30,01,44,14.30
2017,05,30,01,45,14.30
2017,05,30,01,46,14.30
2017,05,30,01,47,14.30
2017,05,30,01,48,14.30
2017,05,30,01,49,14.30
2017,05,30,01,50,14.30
2017,05,30,01,51,14.30
2017,05,30,01,52,14.30
2017,05,30,01,53,14.20
2017,05,30,01,54,14.20
2017,05,30,01,55,14.20
2017,05,30,01,56,14.20
2017,05,30,01,57,14.10
2017,05,30,01,58,14.10
2017,05,30,01,59,14.10
2017,05,30,02,00,14.10
2017,05,30,02,01,14.10
2017,05,30,02,02,14.00
2017,05,30,02,03,14.00
2017,05,30,02,04,14.00
2017,05,30,02,05,13.90
2017,05,30,02,06,13.90
2017,05,30,02,07,13.90
2017,05,30,02,08,13.90
2017,05,30,02,09,13.80
2017,05,30,02,10,13.80
2017,05,30,02,11,13.80
2017,05,30,02,12,13.80
2017,05,30,02,13,13.80
2017,05,30,02,14,13.80
2017,05,30,02,15,13.80
2017,05,30,02,16,13.80
2017,05,30,02,17,13.80
2017,05,30,02,18,13.80
2017,05,30,02,19,13.80
2017,05,30,02,20,13.80
2017,05,30,02,21,13.80
2017,05,30,02,22,13.80
2017,05,30,02,23,13.70
2017,05,30,02,24,13.70
2017,05,30,02,25,13.70
2017,05,30,02,26,13.70
2017,05,30,02,27,13.70
2017,05,30,02,28,13.70
2017,05,30,02,29,13.70
2017,05,30,02,30,13.70
2017,05,30,02,31,13.70
2017,05,30,02,32,13.70
2017,05,30,02,33,13.70
2017,05,30,02,34,13.70
2017,05,30,02,35,13.70
2017,05,30,02,36,13.70
2017,05,30,02,37,13.70
2017,05,30,02,38,13.70
2017,05,30,02,39,13.70
2017,05,30,02,40,13.70
2017,05,30,02,41,13.70
2017,05,30,02,42,13.70
2017,05,30,02,43,13.70
2017,05,30,02,44,13.80
2017,05,30,02,45,13.80
2017,05,30,02,46,13.80
2017,05,30,02,47,13.80
2017,05,30,02,48,13.90
2017,05,30,02,49,13.90
2017,05,30,02,50,13.90
2017,05,30,02,51,14.00
2017,05,30,02,52,14.00
2017,05,30,02,53,14.00
2017,05,30,02,54,14.00
2017,05,30,02,55,14.10
2017,05,30,02,56,14.10
2017,05,30,02,57,14.20
2017,05,30,02,58,14.20
2017,05,30,02,59,14.20
2017,05,30,03,00,14.30
2017,05,30,03,01,14.30
2017,05,30,03,02,14.30
2017,05,30,03,03,14.40
2017,05,30,03,04,14.40
2017,05,30,03,05,14.40
2017,05,30,03,06,14.40
2017,05,30,03,07,14.40
2017,05,30,03,08,14.40
2017,05,30,03,09,14.40
2017,05,30,03,10,14.40
2017,05,30,03,11,14.40
2017,05,30,03,12,14.40
2017,05,30,03,13,14.40
2017,05,30,03,14,14.40
2017,05,30,03,15,14.40
2017,05,30,03,16,14.40
2017,05,30,03,17,14.40
2017,05,30,03,18,14.40
2017,05,30,03,19,14.30
2017,05,30,03,20,14.30
2017,05,30,03,21,14.30
2017,05,30,03,22,14.20
2017,05,30,03,23,14.20
2017,05,30,03,24,14.20
2017,05,30,03,25,14.20
2017,05,30,03,26,14.20
2017,05,30,03,27,14.10
2017,05,30,03,28,14.10
2017,05,30,03,29,14.10
2017,05,30,03,30,14.10
2017,05,30,03,31,14.10
2017,05,30,03,32,14.00
2017,05,30,03,33,14.00
2017,05,30,03,34,14.00
2017,05,30,03,35,13.90
2017,05,30,03,36,13.90
2017,05,30,03,37,13.90
2017,05,30,03,38,13.90
2017,05,30,03,39,13.90
2017,05,30,03,40,13.80
2017,05,30,03,41,13.80
2017,05,30,03,42,13.80
2017,05,30,03,43,13.70
2017,05,30,03,44,13.70
2017,05,30,03,45,13.70
2017,05,30,03,46,13.60
2017,05,30,03,47,13.60
2017,05,30,03,48,13.60
2017,05,30,03,49,13.50
2017,05,30,03,50,13.50
2017,05,30,03,51,13.40
2017,05,30,03,52,13.40
2017,05,30,03,53,13.40
2017,05,30,03,54,13.30
2017,05,30,03,55,13.30
2017,05,30,03,56,13.30
2017,05,30,03,57,13.30
2017,05,30,03,58,13.30
2017,05,30,03,59,13.20
2017,05,30,04,00,13.20
2017,05,30,04,01,13.20
2017,05,30,04,02,13.20
2017,05,30,04,03,13.20
2017,05,30,04,04,13.20
2017,05,30,04,05,13.20
2017,05,30,04,06,13.20
2017,05,30,04,07,13.20
2017,05,30,04,08,13.20
2017,05,30,04,09,13.20
2017,05,30,04,10,13.30
2017,05,30,04,11,13.30
2017,05,30,04,12,13.30
2017,05,30,04,13,13.30
2017,05,30,04,14,13.30
2017,05,30,04,15,13.30
2017,05,30,04,16,13.30
2017,05,30,04,17,13.40
2017,05,30,04,18,13.40
2017,05,30,04,19,13.40
2017,05,30,04,20,13.40
2017,05,30,04,21,13.40
2017,05,30,04,22,13.40
2017,05,30,04,23,13.40
2017,05,30,04,24,13.40
2017,05,30,04,25,13.40
2017,05,30,04,26,13.40
2017,05,30,04,27,13.30
2017,05,30,04,28,13.30
2017,05,30,04,29,13.30
2017,05,30,04,30,13.30
2017,05,30,04,31,13.20
2017,05,30,04,32,13.20
2017,05,30,04,33,13.20
2017,05,30,04,34,13.20
2017,05,30,04,35,13.10
2017,05,30,04,36,13.10
2017,05,30,04,37,13.10
2017,05,30,04,38,13.00
2017,05,30,04,39,13.00
2017,05,30,04,40,12.90
2017,05,30,04,41,12.90
2017,05,30,04,42,12.90
2017,05,30,04,43,12.90
2017,05,30,04,44,12.90
2017,05,30,04,45,12.90
2017,05,30,04,46,12.90
2017,05,30,04,47,12.80
2017,05,30,04,48,12.80
2017,05,30,04,49,12.80
2017,05,30,04,50,12.80
2017,05,30,04,51,12.80
2017,05,30,04,52,12.80
2017,05,30,04,53,12.80
2017,05,30,04,54,12.80
2017,05,30,04,55,12.80
2017,05,30,04,56,12.80
2017,05,30,04,57,12.80
2017,05,30,04,58,12.80
2017,05,30,04,59,12.70
2017,05,30,05,00,12.70
2017,05,30,05,01,12.70
2017,05,30,05,02,12.70
2017,05,30,05,03,12.80
2017,05,30,05,04,12.80
2017,05,30,05,05,12.80
2017,05,30,05,06,12.80
2017,05,30,05,07,12.80
2017,05,30,05,08,12.80
2017,05,30,05,09,12.80
2017,05,30,05,10,12.80
2017,05,30,05,11,12.80
2017,05,30,05,12,12.90
2017,05,30,05,13,12.90
2017,05,30,05,14,12.90
2017,05,30,05,15,12.90
2017,05,30,05,16,12.90
2017,05,30,05,17,12.90
2017,05,30,05,18,12.90
2017,05,30,05,19,12.90
2017,05,30,05,20,12.90
2017,05,30,05,21,12.90
2017,05,30,05,22,12.90
2017,05,30,05,23,12.90
2017,05,30,05,24,12.90
2017,05,30,05,25,12.90
2017,05,30,05,26,12.90
2017,05,30,05,27,12.90
2017,05,30,05,28,12.90
2017,05,30,05,29,12.90
2017,05,30,05,30,12.90
2017,05,30,05,31,12.90
2017,05,30,05,32,12.90
2017,05,30,05,33,12.90
2017,05,30,05,34,12.90
2017,05,30,05,35,12.90
2017,05,30,05,36,12.90
2017,05,30,05,37,12.90
2017,05,30,05,38,12.90
2017,05,30,05,39,12.90
2017,05,30,05,40,12.80
2017,05,30,05,41,12.80
2017,05,30,05,42,12.80
2017,05,30,05,43,12.80
2017,05,30,05,44,12.70
2017,05,30,05,45,12.70
2017,05,30,05,46,12.70
2017,05,30,05,47,12.70
2017,05,30,05,48,12.70
2017,05,30,05,49,12.70
2017,05,30,05,50,12.70
2017,05,30,05,51,12.70
2017,05,30,05,52,12.70
2017,05,30,05,53,12.70
2017,05,30,05,54,12.70
2017,05,30,05,55,12.70
2017,05,30,05,56,12.70
2017,05,30,05,57,12.70
2017,05,30,05,58,12.60
2017,05,30,05,59,12.60
2017,05,30,06,00,12.60
2017,05,30,06,01,12.60
2017,05,30,06,02,12.60
2017,05,30,06,03,12.60
2017,05,30,06,04,12.50
2017,05,30,06,05,12.50
2017,05,30,06,06,12.50
2017,05,30,06,07,12.50
2017,05,30,06,08,12.40
2017,05,30,06,09,12.40
2017,05,30,06,10,12.40
2017,05,30,06,11,12.40
2017,05,30,06,12,12.40
2017,05,30,06,13,12.40
2017,05,30,06,14,12.40
2017,05,30,06,15,12.40
2017,05,30,06,16,12.40
2017,05,30,06,17,12.40
2017,05,30,06,18,12.40
2017,05,30,06,19,12.40
2017,05,30,06,20,12.40
2017,05,30,06,21,12.40
2017,05,30,06,22,12.40
2017,05,30,06,23,12.40
2017,05,30,06,24,12.40
2017,05,30,06,25,12.50
2017,05,30,06,26,12.50
2017,05,30,06,27,12.50
2017,05,30,06,28,12.50
2017,05,30,06,29,12.60
2017,05,30,06,30,12.60
2017,05,30,06,31,12.60
2017,05,30,06,32,12.60
2017,05,30,06,33,12.70
2017,05,30,06,34,12.70
2017,05,30,06,35,12.70
2017,05,30,06,36,12.80
2017,05,30,06,37,12.80
2017,05,30,06,38,12.80
2017,05,30,06,39,12.80
2017,05,30,06,40,12.90
2017,05,30,06,41,12.90
2017,05,30,06,42,12.90
2017,05,30,06,43,12.90
2017,05,30,06,44,13.00
2017,05,30,06,45,13.00
2017,05,30,06,46,13.10
2017,05,30,06,47,13.10
2017,05,30,06,48,13.10
2017,05,30,06,49,13.10
2017,05,30,06,50,13.10
2017,05,30,06,51,13.20
2017,05,30,06,52,13.20
2017,05,30,06,53,13.20
2017,05,30,06,54,13.20
2017,05,30,06,55,13.20
2017,05,30,06,56,13.30
2017,05,30,06,57,13.30
2017,05,30,06,58,13.30
2017,05,30,06,59,13.30
2017,05,30,07,00,13.30
2017,05,30,07,01,13.30
2017,05,30,07,02,13.30
2017,05,30,07,03,13.30
2017,05,30,07,04,13.30
2017,05,30,07,05,13.30
2017,05,30,07,06,13.30
2017,05,30,07,07,13.30
2017,05,30,07,08,13.30
2017,05,30,07,09,13.30
2017,05,30,07,10,13.30
2017,05,30,07,11,13.30
2017,05,30,07,12,13.30
2017,05,30,07,13,13.30
2017,05,30,07,14,13.30
2017,05,30,07,15,13.30
2017,05,30,07,16,13.30
2017,05,30,07,17,13.30
2017,05,30,07,18,13.40
2017,05,30,07,19,13.40
2017,05,30,07,20,13.40
2017,05,30,07,21,13.40
2017,05,30,07,22,13.40
2017,05,30,07,23,13.40
2017,05,30,07,24,13.40
2017,05,30,07,25,13.40
2017,05,30,07,26,13.40
2017,05,30,07,27,13.50
2017,05,30,07,28,13.50
2017,05,30,07,29,13.50
2017,05,30,07,30,13.50
2017,05,30,07,31,13.60
2017,05,30,07,32,13.60
2017,05,30,07,33,13.60
2017,05,30,07,34,13.60
2017,05,30,07,35,13.60
2017,05,30,07,36,13.70
2017,05,30,07,37,13.70
2017,05,30,07,38,13.70
2017,05,30,07,39,13.70
2017,05,30,07,40,13.70
2017,05,30,07,41,13.80
2017,05,30,07,42,13.80
2017,05,30,07,43,13.80
2017,05,30,07,44,13.80
2017,05,30,07,45,13.80
2017,05,30,07,46,13.80
2017,05,30,07,47,13.90
2017,05,30,07,48,13.90
2017,05,30,07,49,13.90
2017,05,30,07,50,13.80
2017,05,30,07,51,13.80
2017,05,30,07,52,13.80
2017,05,30,07,53,13.80
2017,05,30,07,54,13.90
2017,05,30,07,55,13.90
2017,05,30,07,56,13.90
2017,05,30,07,57,13.90
2017,05,30,07,58,13.90
2017,05,30,07,59,13.90
2017,05,30,08,00,13.90
2017,05,30,08,01,13.90
2017,05,30,08,02,13.90
2017,05,30,08,03,13.90
2017,05,30,08,04,13.90
2017,05,30,08,05,13.90
2017,05,30,08,06,13.90
2017,05,30,08,07,13.90
2017,05,30,08,08,13.90
2017,05,30,08,09,14.00
2017,05,30,08,10,14.00
2017,05,30,08,11,14.10
2017,05,30,08,12,14.10
2017,05,30,08,13,14.20
2017,05,30,08,14,14.20
2017,05,30,08,15,14.20
2017,05,30,08,16,14.20
2017,05,30,08,17,14.20
2017,05,30,08,18,14.30
2017,05,30,08,19,14.30
2017,05,30,08,20,14.30
2017,05,30,08,21,14.30
2017,05,30,08,22,14.30
2017,05,30,08,23,14.30
2017,05,30,08,24,14.30
2017,05,30,08,25,14.20
2017,05,30,08,26,14.20
2017,05,30,08,27,14.10
2017,05,30,08,28,14.10
2017,05,30,08,29,14.10
2017,05,30,08,30,14.10
2017,05,30,08,31,14.10
2017,05,30,08,32,14.10
2017,05,30,08,33,14.10
2017,05,30,08,34,14.10
2017,05,30,08,35,14.10
2017,05,30,08,36,14.10
2017,05,30,08,37,14.10
2017,05,30,08,38,14.20
2017,05,30,08,39,14.20
2017,05,30,08,40,14.20
2017,05,30,08,41,14.20
2017,05,30,08,42,14.30
2017,05,30,08,43,14.30
2017,05,30,08,44,14.30
2017,05,30,08,45,14.30
2017,05,30,08,46,14.30
2017,05,30,08,47,14.30
2017,05,30,08,48,14.30
2017,05,30,08,49,14.40
2017,05,30,08,50,14.40
2017,05,30,08,51,14.50
2017,05,30,08,52,14.50
2017,05,30,08,53,14.60
2017,05,30,08,54,14.60
2017,05,30,08,55,14.70
2017,05,30,08,56,14.70
2017,05,30,08,57,14.80
2017,05,30,08,58,14.80
2017,05,30,08,59,14.90
2017,05,30,09,00,14.90
2017,05,30,09,01,15.00
2017,05,30,09,02,15.00
2017,05,30,09,03,15.00
2017,05,30,09,04,15.10
2017,05,30,09,05,15.10
2017,05,30,09,06,15.10
2017,05,30,09,07,15.10
2017,05,30,09,08,15.10
2017,05,30,09,09,15.10
2017,05,30,09,10,15.10
2017,05,30,09,11,15.10
2017,05,30,09,12,15.10
2017,05,30,09,13,15.10
2017,05,30,09,14,15.10
2017,05,30,09,15,15.10
2017,05,30,09,16,15.10
2017,05,30,09,17,15.10
2017,05,30,09,18,15.00
2017,05,30,09,19,15.00
2017,05,30,09,20,15.00
2017,05,30,09,21,15.00
2017,05,30,09,22,15.00
2017,05,30,09,23,15.00
2017,05,30,09,24,15.10
2017,05,30,09,25,15.10
2017,05,30,09,26,15.20
2017,05,30,09,27,15.20
2017,05,30,09,28,15.30
2017,05,30,09,29,15.30
2017,05,30,09,30,15.30
2017,05,30,09,31,15.20
2017,05,30,09,32,15.20
2017,05,30,09,33,15.10
2017,05,30,09,34,15.10
2017,05,30,09,35,15.10
2017,05,30,09,36,15.10
2017,05,30,09,37,15.10
2017,05,30,09,38,15.10
2017,05,30,09,39,15.10
2017,05,30,09,40,15.10
2017,05,30,09,41,15.10
2017,05,30,09,42,15.10
2017,05,30,09,43,15.10
2017,05,30,09,44,15.10
2017,05,30,09,45,15.10
2017,05,30,09,46,15.10
2017,05,30,09,47,15.10
2017,05,30,09,48,15.20
2017,05,30,09,49,15.20
2017,05,30,09,50,15.30
2017,05,30,09,51,15.40
2017,05,30,09,52,15.40
2017,05,30,09,53,15.50
2017,05,30,09,54,15.50
2017,05,30,09,55,15.60
2017,05,30,09,56,15.60
2017,05,30,09,57,15.70
2017,05,30,09,58,15.70
2017,05,30,09,59,15.80
2017,05,30,10,00,15.80
2017,05,30,10,01,15.90
2017,05,30,10,02,15.90
2017,05,30,10,03,16.00
2017,05,30,10,04,16.00
2017,05,30,10,05,16.00
2017,05,30,10,06,16.00
2017,05,30,10,07,16.00
2017,05,30,10,08,15.90
2017,05,30,10,09,15.80
2017,05,30,10,10,15.70
2017,05,30,10,11,15.60
2017,05,30,10,12,15.60
2017,05,30,10,13,15.60
2017,05,30,10,14,15.60
2017,05,30,10,15,15.50
2017,05,30,10,16,15.50
2017,05,30,10,17,15.50
2017,05,30,10,18,15.50
2017,05,30,10,19,15.50
2017,05,30,10,20,15.40
2017,05,30,10,21,15.40
2017,05,30,10,22,15.30
2017,05,30,10,23,15.30
2017,05,30,10,24,15.30
2017,05,30,10,25,15.30
2017,05,30,10,26,15.30
2017,05,30,10,27,15.30
2017,05,30,10,28,15.30
2017,05,30,10,29,15.30
2017,05,30,10,30,15.20
2017,05,30,10,31,15.20
2017,05,30,10,32,15.20
2017,05,30,10,33,15.20
2017,05,30,10,34,15.30
2017,05,30,10,35,15.30
2017,05,30,10,36,15.30
2017,05,30,10,37,15.40
2017,05,30,10,38,15.40
2017,05,30,10,39,15.40
2017,05,30,10,40,15.50
2017,05,30,10,41,15.50
2017,05,30,10,42,15.60
2017,05,30,10,43,15.60
2017,05,30,10,44,15.70
2017,05,30,10,45,15.80
2017,05,30,10,46,15.70
2017,05,30,10,47,15.70
2017,05,30,10,48,15.70
2017,05,30,10,49,15.60
2017,05,30,10,50,15.60
2017,05,30,10,51,15.60
2017,05,30,10,52,15.50
2017,05,30,10,53,15.40
2017,05,30,10,54,15.30
2017,05,30,10,55,15.30
2017,05,30,10,56,15.30
2017,05,30,10,57,15.30
2017,05,30,10,58,15.30
2017,05,30,10,59,15.40
2017,05,30,11,00,15.40
2017,05,30,11,01,15.40
2017,05,30,11,02,15.50
2017,05,30,11,03,15.40
2017,05,30,11,04,15.40
2017,05,30,11,05,15.40
2017,05,30,11,06,15.40
2017,05,30,11,07,15.40
2017,05,30,11,08,15.40
2017,05,30,11,09,15.40
2017,05,30,11,10,15.40
2017,05,30,11,11,15.40
2017,05,30,11,12,15.40
2017,05,30,11,13,15.40
2017,05,30,11,14,15.40
2017,05,30,11,15,15.40
2017,05,30,11,16,15.40
2017,05,30,11,17,15.50
2017,05,30,11,18,15.50
2017,05,30,11,19,15.60
2017,05,30,11,20,15.60
2017,05,30,11,21,15.70
2017,05,30,11,22,15.70
2017,05,30,11,23,15.70
2017,05,30,11,24,15.80
2017,05,30,11,25,15.80
2017,05,30,11,26,15.80
2017,05,30,11,27,15.90
2017,05,30,11,28,15.90
2017,05,30,11,29,15.90
2017,05,30,11,30,16.00
2017,05,30,11,31,16.00
2017,05,30,11,32,16.10
2017,05,30,11,33,16.10
2017,05,30,11,34,16.00
2017,05,30,11,35,16.00
2017,05,30,11,36,15.90
2017,05,30,11,37,15.90
2017,05,30,11,38,15.80
2017,05,30,11,39,15.80
2017,05,30,11,40,15.70
2017,05,30,11,41,15.70
2017,05,30,11,42,15.60
2017,05,30,11,43,15.60
2017,05,30,11,44,15.60
2017,05,30,11,45,15.50
2017,05,30,11,46,15.50
2017,05,30,11,47,15.50
2017,05,30,11,48,15.40
2017,05,30,11,49,15.40
2017,05,30,11,50,15.40
2017,05,30,11,51,15.40
2017,05,30,11,52,15.40
2017,05,30,11,53,15.40
2017,05,30,11,54,15.40
2017,05,30,11,55,15.40
2017,05,30,11,56,15.40
2017,05,30,11,57,15.30
2017,05,30,11,58,15.30
2017,05,30,11,59,15.30
2017,05,30,12,00,15.30
2017,05,30,12,01,15.30
2017,05,30,12,02,15.30
2017,05,30,12,03,15.30
2017,05,30,12,04,15.30
2017,05,30,12,05,15.30
2017,05,30,12,06,15.30
2017,05,30,12,07,15.30
2017,05,30,12,08,15.30
2017,05,30,12,09,15.30
2017,05,30,12,10,15.30
2017,05,30,12,11,15.30
2017,05,30,12,12,15.30
2017,05,30,12,13,15.20
2017,05,30,12,14,15.20
2017,05,30,12,15,15.20
2017,05,30,12,16,15.20
2017,05,30,12,17,15.20
2017,05,30,12,18,15.20
2017,05,30,12,19,15.20
2017,05,30,12,20,15.20
2017,05,30,12,21,15.20
2017,05,30,12,22,15.10
2017,05,30,12,23,15.10
2017,05,30,12,24,15.10
2017,05,30,12,25,15.20
2017,05,30,12,26,15.20
2017,05,30,12,27,15.20
2017,05,30,12,28,15.20
2017,05,30,12,29,15.20
2017,05,30,12,30,15.20
2017,05,30,12,31,15.20
2017,05,30,12,32,15.30
2017,05,30,12,33,15.30
2017,05,30,12,34,15.30
2017,05,30,12,35,15.30
2017,05,30,12,36,15.30
2017,05,30,12,37,15.30
2017,05,30,12,38,15.40
2017,05,30,12,39,15.40
2017,05,30,12,40,15.30
2017,05,30,12,41,15.30
2017,05,30,12,42,15.30
2017,05,30,12,43,15.30
2017,05,30,12,44,15.30
2017,05,30,12,45,15.30
2017,05,30,12,46,15.30
2017,05,30,12,47,15.30
2017,05,30,12,48,15.30
2017,05,30,12,49,15.30
2017,05,30,12,50,15.30
2017,05,30,12,51,15.20
2017,05,30,12,52,15.20
2017,05,30,12,53,15.20
2017,05,30,12,54,15.20
2017,05,30,12,55,15.20
2017,05,30,12,56,15.20
2017,05,30,12,57,15.20
2017,05,30,12,58,15.30
2017,05,30,12,59,15.20
2017,05,30,13,00,15.20
2017,05,30,13,01,15.20
2017,05,30,13,02,15.20
2017,05,30,13,03,15.20
2017,05,30,13,04,15.10
2017,05,30,13,05,15.10
2017,05,30,13,06,15.10
2017,05,30,13,07,15.10
2017,05,30,13,08,15.10
2017,05,30,13,09,15.10
2017,05,30,13,10,15.10
2017,05,30,13,11,15.20
2017,05,30,13,12,15.20
2017,05,30,13,13,15.20
2017,05,30,13,14,15.20
2017,05,30,13,15,15.20
2017,05,30,13,16,15.20
2017,05,30,13,17,15.30
2017,05,30,13,18,15.30
2017,05,30,13,19,15.30
2017,05,30,13,20,15.30
2017,05,30,13,21,15.30
2017,05,30,13,22,15.40
2017,05,30,13,23,15.40
2017,05,30,13,24,15.40
2017,05,30,13,25,15.40
2017,05,30,13,26,15.40
2017,05,30,13,27,15.40
2017,05,30,13,28,15.40
2017,05,30,13,29,15.40
2017,05,30,13,30,15.30
2017,05,30,13,31,15.20
2017,05,30,13,32,15.20
2017,05,30,13,33,15.20
2017,05,30,13,34,15.20
2017,05,30,13,35,15.20
2017,05,30,13,36,15.30
2017,05,30,13,37,15.30
2017,05,30,13,38,15.30
2017,05,30,13,39,15.40
2017,05,30,13,40,15.40
2017,05,30,13,41,15.40
2017,05,30,13,42,15.40
2017,05,30,13,43,15.40
2017,05,30,13,44,15.40
2017,05,30,13,45,15.40
2017,05,30,13,46,15.50
2017,05,30,13,47,15.40
2017,05,30,13,48,15.40
2017,05,30,13,49,15.40
2017,05,30,13,50,15.40
2017,05,30,13,51,15.40
2017,05,30,13,52,15.50
2017,05,30,13,53,15.50
2017,05,30,13,54,15.50
2017,05,30,13,55,15.50
2017,05,30,13,56,15.50
2017,05,30,13,57,15.50
2017,05,30,13,58,15.50
2017,05,30,13,59,15.50
2017,05,30,14,00,15.50
2017,05,30,14,01,15.40
2017,05,30,14,02,15.40
2017,05,30,14,03,15.40
2017,05,30,14,04,15.40
2017,05,30,14,05,15.40
2017,05,30,14,06,15.40
2017,05,30,14,07,15.40
2017,05,30,14,08,15.40
2017,05,30,14,09,15.50
2017,05,30,14,10,15.50
2017,05,30,14,11,15.50
2017,05,30,14,12,15.50
2017,05,30,14,13,15.50
2017,05,30,14,14,15.50
2017,05,30,14,15,15.60
2017,05,30,14,16,15.60
2017,05,30,14,17,15.60
2017,05,30,14,18,15.60
2017,05,30,14,19,15.60
2017,05,30,14,20,15.60
2017,05,30,14,21,15.60
2017,05,30,14,22,15.60
2017,05,30,14,23,15.60
2017,05,30,14,24,15.60
2017,05,30,14,25,15.50
2017,05,30,14,26,15.50
2017,05,30,14,27,15.40
2017,05,30,14,28,15.30
2017,05,30,14,29,15.30
2017,05,30,14,30,15.20
2017,05,30,14,31,15.20
2017,05,30,14,32,15.20
2017,05,30,14,33,15.20
2017,05,30,14,34,15.10
2017,05,30,14,35,15.10
2017,05,30,14,36,15.10
2017,05,30,14,37,15.00
2017,05,30,14,38,15.00
2017,05,30,14,39,15.00
2017,05,30,14,40,14.90
2017,05,30,14,41,14.90
2017,05,30,14,42,14.90
2017,05,30,14,43,14.90
2017,05,30,14,44,14.90
2017,05,30,14,45,14.80
2017,05,30,14,46,14.80
2017,05,30,14,47,14.80
2017,05,30,14,48,14.80
2017,05,30,14,49,14.80
2017,05,30,14,50,14.80
2017,05,30,14,51,14.80
2017,05,30,14,52,14.90
2017,05,30,14,53,14.90
2017,05,30,14,54,14.90
2017,05,30,14,55,14.90
2017,05,30,14,56,14.90
2017,05,30,14,57,14.90
2017,05,30,14,58,14.90
2017,05,30,14,59,14.90
2017,05,30,15,00,14.90
2017,05,30,15,01,14.90
2017,05,30,15,02,14.90
2017,05,30,15,03,15.00
2017,05,30,15,04,15.00
2017,05,30,15,05,15.10
2017,05,30,15,06,15.10
2017,05,30,15,07,15.10
2017,05,30,15,08,15.20
2017,05,30,15,09,15.20
2017,05,30,15,10,15.20
2017,05,30,15,11,15.20
2017,05,30,15,12,15.30
2017,05,30,15,13,15.30
2017,05,30,15,14,15.40
2017,05,30,15,15,15.50
2017,05,30,15,16,15.60
2017,05,30,15,17,15.60
2017,05,30,15,18,15.70
2017,05,30,15,19,15.70
2017,05,30,15,20,15.70
2017,05,30,15,21,15.70
2017,05,30,15,22,15.70
2017,05,30,15,23,15.60
2017,05,30,15,24,15.50
2017,05,30,15,25,15.40
2017,05,30,15,26,15.40
2017,05,30,15,27,15.40
2017,05,30,15,28,15.40
2017,05,30,15,29,15.40
2017,05,30,15,30,15.40
2017,05,30,15,31,15.50
2017,05,30,15,32,15.60
2017,05,30,15,33,15.60
2017,05,30,15,34,15.60
2017,05,30,15,35,15.70
2017,05,30,15,36,15.70
2017,05,30,15,37,15.70
2017,05,30,15,38,15.70
2017,05,30,15,39,15.80
2017,05,30,15,40,15.80
2017,05,30,15,41,15.80
2017,05,30,15,42,15.80
2017,05,30,15,43,15.80
2017,05,30,15,44,15.80
2017,05,30,15,45,15.70
2017,05,30,15,46,15.70
2017,05,30,15,47,15.60
2017,05,30,15,48,15.60
2017,05,30,15,49,15.60
2017,05,30,15,50,15.60
2017,05,30,15,51,15.60
2017,05,30,15,52,15.60
2017,05,30,15,53,15.60
2017,05,30,15,54,15.50
2017,05,30,15,55,15.50
2017,05,30,15,56,15.40
2017,05,30,15,57,15.30
2017,05,30,15,58,15.30
2017,05,30,15,59,15.30
2017,05,30,16,00,15.30
2017,05,30,16,01,15.30
2017,05,30,16,02,15.30
2017,05,30,16,03,15.20
2017,05,30,16,04,15.20
2017,05,30,16,05,15.20
2017,05,30,16,06,15.30
2017,05,30,16,07,15.30
2017,05,30,16,08,15.20
2017,05,30,16,09,15.20
2017,05,30,16,10,15.20
2017,05,30,16,11,15.20
2017,05,30,16,12,15.20
2017,05,30,16,13,15.20
2017,05,30,16,14,15.10
2017,05,30,16,15,15.10
2017,05,30,16,16,15.10
2017,05,30,16,17,15.20
2017,05,30,16,18,15.20
2017,05,30,16,19,15.20
2017,05,30,16,20,15.20
2017,05,30,16,21,15.20
2017,05,30,16,22,15.20
2017,05,30,16,23,15.20
2017,05,30,16,24,15.20
2017,05,30,16,25,15.10
2017,05,30,16,26,15.10
2017,05,30,16,27,15.20
2017,05,30,16,28,15.20
2017,05,30,16,29,15.20
2017,05,30,16,30,15.20
2017,05,30,16,31,15.20
2017,05,30,16,32,15.30
2017,05,30,16,33,15.30
2017,05,30,16,34,15.40
2017,05,30,16,35,15.50
2017,05,30,16,36,15.60
2017,05,30,16,37,15.70
2017,05,30,16,38,15.80
2017,05,30,16,39,15.80
2017,05,30,16,40,15.80
2017,05,30,16,41,15.80
2017,05,30,16,42,15.70
2017,05,30,16,43,15.70
2017,05,30,16,44,15.70
2017,05,30,16,45,15.70
2017,05,30,16,46,15.70
2017,05,30,16,47,15.80
2017,05,30,16,48,15.80
2017,05,30,16,49,15.80
2017,05,30,16,50,15.90
2017,05,30,16,51,15.90
2017,05,30,16,52,15.90
2017,05,30,16,53,15.90
2017,05,30,16,54,16.00
2017,05,30,16,55,16.00
2017,05,30,16,56,16.10
2017,05,30,16,57,16.10
2017,05,30,16,58,16.10
2017,05,30,16,59,16.00
2017,05,30,17,00,16.00
2017,05,30,17,01,15.90
2017,05,30,17,02,15.90
2017,05,30,17,03,15.90
2017,05,30,17,04,15.80
2017,05,30,17,05,15.80
2017,05,30,17,06,15.80
2017,05,30,17,07,15.80
2017,05,30,17,08,15.80
2017,05,30,17,09,15.70
2017,05,30,17,10,15.70
2017,05,30,17,11,15.70
2017,05,30,17,12,15.70
2017,05,30,17,13,15.70
2017,05,30,17,14,15.70
2017,05,30,17,15,15.70
2017,05,30,17,16,15.60
2017,05,30,17,17,15.50
2017,05,30,17,18,15.50
2017,05,30,17,19,15.40